GW7182 Weather Reports


time (UTC)temp
C
wind
direction
speed
KPH
gust
KPH
rain 1hr
cm
rain 24hr
cm
rain mn
cm
humidity
%
barometer
mb
20260504081533 10 347 1.6 3.2 0.00 0.00 0.00 64 1018.4
20260504080530 10 42 1.6 4.8 0.00 0.00 0.00 64 1018.4
20260504050519 10 134 1.6 4.8 0.00 0.00 0.00 68 1019.5
20260504045516 11 207 1.6 4.8 0.00 0.00 0.00 65 1019.5
20260504044553 11 357 3.2 6.4 0.00 0.00 0.00 66 1019.4
20260504043550 11 350 3.2 6.4 0.00 0.00 0.00 65 1019.2
20260504042527 11 41 1.6 4.8 0.00 0.00 0.00 60 1018.9
20260504041524 11 23 0.0 6.4 0.00 0.00 0.00 60 1019.2
20260504040521 11 11 4.8 9.7 0.00 0.00 0.00 60 1019.2
20260504035518 11 166 3.2 6.4 0.00 0.00 0.00 60 1019.2
20260504034515 11 7 3.2 8.0 0.00 0.00 0.00 61 1018.9
20260504033533 11 168 3.2 8.0 0.00 0.00 0.00 59 1019.3
20260504032610 11 168 4.8 9.7 0.00 0.00 0.00 58 1018.9
20260504031527 11 177 3.2 9.7 0.00 0.00 0.00 58 1019.1
20260504030524 11 5 4.8 9.7 0.00 0.00 0.00 59 1019.1
20260504025521 11 358 3.2 6.4 0.00 0.00 0.00 60 1019.2
20260504024538 12 38 0.0 3.2 0.00 0.00 0.00 56 1019.0
20260504023536 11 0.0 0.0 0.00 0.00 0.00 55 1019.0
20260504022533 11 0.0 1.6 0.00 0.00 0.00 56 1018.9
20260504021530 11 0.0 0.0 0.00 0.00 0.00 56 1018.8
20260504020527 12 0.0 0.0 0.00 0.00 0.00 56 1018.7
20260504015524 12 0.0 1.6 0.00 0.00 0.00 59 1018.5
20260504014521 12 0.0 0.0 0.00 0.00 0.00 60 1018.7
20260504013519 12 0.0 1.6 0.00 0.00 0.00 61 1018.5
20260504012516 12 0.0 0.0 0.00 0.00 0.00 60 1018.5
20260504011553 12 0.0 0.0 0.00 0.00 0.00 58 1018.2
20260504010550 12 0.0 0.0 0.00 0.00 0.00 56 1018.4
20260504005527 13 0.0 0.0 0.00 0.00 0.00 54 1018.2
20260504004604 13 0.0 0.0 0.00 0.00 0.00 56 1018.1
20260504003521 13 0.0 0.0 0.00 0.00 0.00 54 1018.0
20260504002519 14 0.0 0.0 0.00 0.00 0.00 55 1018.1
20260504001515 14 0.0 0.0 0.00 0.00 0.00 54 1018.1
20260504000532 15 0.0 0.0 0.00 0.00 0.00 52 1018.1
20260503235530 15 326 0.0 3.2 0.00 0.00 0.00 53 1018.1
20260503234527 16 0.0 1.6 0.00 0.00 0.00 49 1018.0
20260503233604 16 268 1.6 3.2 0.00 0.00 0.00 47 1018.1
20260503232521 16 237 1.6 4.8 0.00 0.00 0.00 45 1018.0
20260503231518 17 347 0.0 1.6 0.00 0.00 0.00 46 1018.0
20260503230515 17 268 0.0 3.2 0.00 0.00 0.00 43 1017.9
20260503225533 17 238 1.6 9.7 0.00 0.00 0.00 41 1018.1
20260503224550 17 275 3.2 11.3 0.00 0.00 0.00 40 1018.1
20260503223527 17 278 3.2 8.0 0.00 0.00 0.00 39 1018.4
20260503222524 17 258 3.2 8.0 0.00 0.00 0.00 38 1018.3
20260503221541 17 316 1.6 4.8 0.00 0.00 0.00 39 1018.3
20260503220518 17 264 4.8 11.3 0.00 0.00 0.00 38 1018.5
20260503215556 17 327 1.6 6.4 0.00 0.00 0.00 39 1018.5
20260503214533 17 349 1.6 6.4 0.00 0.00 0.00 35 1018.4
20260503213530 18 265 3.2 6.4 0.00 0.00 0.00 36 1018.4
20260503212526 17 246 3.2 8.0 0.00 0.00 0.00 38 1018.5
20260503211524 16 309 3.2 6.4 0.00 0.00 0.00 36 1018.5
20260503210521 17 305 3.2 6.4 0.00 0.00 0.00 35 1018.7
20260503205538 17 284 1.6 6.4 0.00 0.00 0.00 35 1018.7
20260503204535 17 210 4.8 6.4 0.00 0.00 0.00 37 1018.9
20260503203532 17 287 4.8 9.7 0.00 0.00 0.00 39 1018.9
20260503202529 17 277 3.2 12.9 0.00 0.00 0.00 39 1019.2
20260503201526 17 286 3.2 6.4 0.00 0.00 0.00 37 1019.3
20260503200523 17 337 3.2 4.8 0.00 0.00 0.00 36 1019.4
20260503195521 16 259 3.2 8.0 0.00 0.00 0.00 37 1019.5
20260503194518 16 277 3.2 8.0 0.00 0.00 0.00 36 1019.9
20260503193555 16 314 3.2 6.4 0.00 0.00 0.00 35 1020.0
20260503192533 17 290 3.2 11.3 0.00 0.00 0.00 36 1020.0
20260503191530 16 273 3.2 8.0 0.00 0.00 0.00 38 1020.3
20260503190527 16 308 4.8 8.0 0.00 0.00 0.00 38 1020.3
20260503185524 16 322 3.2 6.4 0.00 0.00 0.00 39 1020.3
20260503184521 16 278 4.8 14.5 0.00 0.00 0.00 40 1020.5
20260503183518 16 246 4.8 14.5 0.00 0.00 0.00 41 1020.4
20260503182536 15 250 3.2 8.0 0.00 0.00 0.00 41 1020.5
20260503181532 16 299 3.2 6.4 0.00 0.00 0.00 44 1020.6
20260503180529 16 270 3.2 9.7 0.00 0.00 0.00 43 1020.6
20260503175526 16 252 3.2 4.8 0.00 0.00 0.00 43 1020.6
20260503174524 16 219 3.2 8.0 0.00 0.00 0.00 44 1020.7
20260503173521 15 215 3.2 8.0 0.00 0.00 0.00 46 1020.7
20260503172518 15 330 3.2 6.4 0.00 0.00 0.00 44 1021.1
20260503171535 14 338 1.6 4.8 0.00 0.00 0.00 46 1021.0
20260503170532 14 263 1.6 9.7 0.00 0.00 0.00 45 1021.3
20260503150518 12 254 3.2 8.0 0.00 0.00 0.00 50 1021.7
20260503130523 8 221 1.6 3.2 0.00 0.00 0.00 76 1021.1
20260503110534 4 283 0.0 3.2 0.00 0.00 0.00 89 1020.4